College Park, MD

7:47 AM EST on December 04, 2016 (GMT -0500)
College Park

Weather History for KCGS - February, 2013

Change the Weather History Date:

Tuesday, February 5, 2013

  Actual Average Record
Temperature  
Mean Temperature 36 °F -  
Max Temperature 42 °F 43 °F 71 °F (1991)
Min Temperature 31 °F 25 °F 2 °F (1955)
Degree Days  
Heating Degree Days 28    
Moisture  
Dew Point 29 °F    
Average Humidity 73    
Maximum Humidity 87    
Minimum Humidity 59    
Precipitation  
Precipitation 0.00 in - - ()
Sea Level Pressure  
Sea Level Pressure 29.90 in    
Wind  
Wind Speed 1 mph (NE)    
Max Wind Speed 5 mph    
Max Gust Speed -    
Visibility 10 miles    
Events      
Averages and records for this station are not official NWS values.
T = Trace of Precipitation, MM = Missing Value Source: NWS Daily Summary

Daily Weather History Graph

Daily Weather History Graph

Search for Another Location

Airport or City:

Trip Planner

Search our weather history database for the weather conditions in past years. The results will help you decide how hot, cold, wet, or windy it might be!

Date:

Astronomy

Feb. 05, 2013 Rise Set
Actual Time 7:10 AM EST 5:33 PM EST
Civil Twilight 6:42 AM EST 6:01 PM EST
Nautical Twilight 6:10 AM EST 6:33 PM EST
Astronomical Twilight 5:39 AM EST 7:04 PM EST
Moon 2:48 AM EST (2/5) 12:50 PM EST (2/5)
Length of Visible Light 11h 19m
Length of Day
10h 23m
Waning Crescent, 27% of the Moon is Illuminated
Feb 5
Waning Crescent
Feb 10
New
Feb 17
First Quarter
Feb 25
Full
Mar 4
Last Quarter

Hourly Weather History & Observations

Time (EST) Temp. Windchill Dew Point Humidity Pressure Visibility Wind Dir Wind Speed Gust Speed Precip Events Conditions
12:05 AM 34.7 °F - 24.1 °F 65% 29.91 in 10.0 mi Calm Calm - N/A   Overcast
12:50 AM 34.2 °F - 24.4 °F 68% 29.90 in 10.0 mi Calm Calm - N/A   Overcast
1:10 AM 33.1 °F - 24.4 °F 71% 29.90 in 10.0 mi Calm Calm - N/A   Mostly Cloudy
1:30 AM 32.9 °F - 24.4 °F 71% 29.89 in 10.0 mi Calm Calm - N/A   Mostly Cloudy
1:55 AM 31.8 °F - 25.3 °F 77% 29.89 in 10.0 mi Calm Calm - N/A   Scattered Clouds
2:15 AM 31.6 °F - 26.1 °F 80% 29.89 in 10.0 mi Calm Calm - N/A   Mostly Cloudy
2:35 AM 31.6 °F - 25.5 °F 78% 29.89 in 10.0 mi Calm Calm - N/A   Overcast
2:55 AM 31.1 °F - 26.6 °F 83% 29.88 in 10.0 mi Calm Calm - N/A   Mostly Cloudy
3:20 AM 31.1 °F - 26.4 °F 83% 29.88 in 10.0 mi Calm Calm - N/A   Mostly Cloudy
4:00 AM 31.6 °F - 26.4 °F 81% 29.87 in 10.0 mi Calm Calm - N/A   Overcast
4:20 AM 32.0 °F - 26.2 °F 79% 29.87 in 10.0 mi Calm Calm - N/A   Overcast
4:45 AM 31.6 °F - 26.6 °F 82% 29.87 in 10.0 mi Calm Calm - N/A   Scattered Clouds
6:10 AM 33.4 °F 30.4 °F 26.4 °F 75% 29.88 in 10.0 mi North 3.5 mph - N/A   Overcast
6:30 AM 33.8 °F 30.8 °F 26.4 °F 74% 29.89 in 10.0 mi NNE 3.5 mph - N/A   Overcast
6:50 AM 34.0 °F 31.0 °F 26.4 °F 74% 29.89 in 10.0 mi North 3.5 mph - N/A   Overcast
7:15 AM 34.7 °F - 27.1 °F 74% 29.91 in 10.0 mi Calm Calm - N/A   Overcast
7:55 AM 35.1 °F - 28.8 °F 78% 29.92 in 10.0 mi Calm Calm - N/A   Overcast
8:15 AM 35.2 °F - 29.1 °F 78% 29.91 in 10.0 mi Calm Calm - N/A   Overcast
8:40 AM 35.6 °F - 29.7 °F 79% 29.93 in 10.0 mi Calm Calm - N/A   Mostly Cloudy
9:00 AM 35.6 °F 31.7 °F 30.2 °F 81% 29.93 in 10.0 mi North 4.6 mph - N/A   Overcast
9:20 AM 36.0 °F - 30.4 °F 80% 29.94 in 10.0 mi Calm Calm - N/A   Overcast
9:40 AM 37.0 °F 33.3 °F 30.9 °F 79% 29.94 in 10.0 mi NE 4.6 mph - N/A   Overcast
10:05 AM 37.4 °F 34.9 °F 30.6 °F 76% 29.94 in 10.0 mi North 3.5 mph - N/A   Overcast
10:25 AM 37.4 °F - 30.2 °F 75% 29.94 in 10.0 mi Calm Calm - N/A   Overcast
10:45 AM 37.9 °F - 30.2 °F 74% 29.94 in 10.0 mi Calm Calm - N/A   Overcast
11:05 AM 38.5 °F 36.1 °F 30.2 °F 72% 29.93 in 10.0 mi East 3.5 mph - N/A   Scattered Clouds
11:50 AM 38.8 °F - 30.0 °F 71% 29.93 in 10.0 mi Calm Calm - N/A   Scattered Clouds
12:10 PM 39.2 °F 35.9 °F 29.7 °F 69% 29.92 in 10.0 mi NNE 4.6 mph - N/A   Scattered Clouds
12:30 PM 39.6 °F - 29.5 °F 67% 29.91 in 10.0 mi Calm Calm - N/A   Scattered Clouds
12:55 PM 40.3 °F 38.2 °F 28.6 °F 63% 29.90 in 10.0 mi East 3.5 mph - N/A   Overcast
1:15 PM 40.5 °F - 28.9 °F 64% 29.89 in 10.0 mi Calm Calm - N/A   Overcast
1:55 PM 41.5 °F - 29.1 °F 61% 29.88 in 10.0 mi Calm Calm - N/A   Scattered Clouds
2:20 PM 41.7 °F 38.8 °F 28.8 °F 60% 29.87 in 10.0 mi NNE 4.6 mph - N/A   Clear
2:40 PM 41.9 °F 40.0 °F 28.9 °F 60% 29.86 in 10.0 mi ENE 3.5 mph - N/A   Clear
3:00 PM 41.9 °F 40.0 °F 29.3 °F 61% 29.87 in 10.0 mi NE 3.5 mph - N/A   Scattered Clouds
3:20 PM 41.9 °F - 28.6 °F 59% 29.88 in 10.0 mi Calm Calm - N/A   Scattered Clouds
3:45 PM 42.1 °F 40.2 °F 29.3 °F 61% 29.87 in 10.0 mi ESE 3.5 mph - N/A   Scattered Clouds
4:05 PM 42.1 °F - 29.1 °F 60% 29.88 in 10.0 mi Calm Calm - N/A   Scattered Clouds
4:25 PM 41.7 °F - 28.4 °F 59% 29.87 in 10.0 mi Calm Calm - N/A   Clear
4:45 PM 41.2 °F 39.2 °F 28.6 °F 61% 29.88 in 10.0 mi NNE 3.5 mph - N/A   Clear
5:10 PM 40.6 °F 38.6 °F 28.4 °F 62% 29.88 in 10.0 mi NE 3.5 mph - N/A   Clear
5:30 PM 40.1 °F 38.0 °F 28.8 °F 64% 29.88 in 10.0 mi East 3.5 mph - N/A   Clear
5:50 PM 39.4 °F - 28.4 °F 65% 29.89 in 10.0 mi Calm Calm - N/A   Clear
6:10 PM 38.7 °F - 28.4 °F 67% 29.89 in 10.0 mi Calm Calm - N/A   Clear
6:35 PM 37.8 °F - 28.0 °F 68% 29.89 in 10.0 mi Calm Calm - N/A   Clear
6:55 PM 37.4 °F - 27.3 °F 67% 29.90 in 10.0 mi Calm Calm - N/A   Clear
7:15 PM 35.6 °F - 28.2 °F 75% 29.91 in 10.0 mi Calm Calm - N/A   Mostly Cloudy
7:40 PM 36.9 °F - 28.4 °F 71% 29.90 in 10.0 mi Calm Calm - N/A   Overcast
8:00 PM 37.4 °F - 28.9 °F 71% 29.90 in 10.0 mi Calm Calm - N/A   Overcast
8:20 PM 36.9 °F - 30.2 °F 77% 29.90 in 10.0 mi Calm Calm - N/A   Overcast
8:40 PM 36.7 °F - 30.2 °F 77% 29.91 in 10.0 mi Calm Calm - N/A   Overcast
9:05 PM 36.0 °F - 30.6 °F 81% 29.92 in 10.0 mi Calm Calm - N/A   Overcast
9:25 PM 35.6 °F - 31.1 °F 84% 29.92 in 10.0 mi Calm Calm - N/A   Overcast
9:45 PM 35.8 °F - 30.4 °F 81% 29.93 in 10.0 mi Calm Calm - N/A   Overcast
10:00 PM 34.7 °F - 30.9 °F 86% 29.94 in 10.0 mi Calm Calm - N/A   Overcast
10:30 PM 35.2 °F - 31.8 °F 87% 29.94 in 10.0 mi Calm Calm - N/A   Overcast
10:50 PM 36.1 °F 33.5 °F 30.9 °F 81% 29.94 in 10.0 mi North 3.5 mph - N/A   Overcast
11:10 PM 36.0 °F - 31.1 °F 82% 29.95 in 10.0 mi Calm Calm - N/A   Overcast
11:30 PM 36.0 °F - 31.6 °F 84% 29.95 in 10.0 mi Calm Calm - N/A   Overcast
11:55 PM 35.4 °F - 32.0 °F 87% 29.95 in 10.0 mi Calm Calm - N/A   Overcast